Weather History for Scappoose, OR

Change the Weather History Date:

Tuesday, September 10, 2013

  Actual Average Record
Temperature  
Mean Temperature 76 °F -  
Max Temperature 90 °F - 93 °F (2007)
Min Temperature 62 °F - 42 °F (1999)
Degree Days  
Heating Degree Days 0    
Month to date heating degree days 0  
Since 1 July heating degree days 24  
Cooling Degree Days 11    
Month to date cooling degree days 47  
Year to date cooling degree days 371  
Growing Degree Days 26 (Base 50)    
Moisture  
Dew Point 60 °F    
Average Humidity 64    
Maximum Humidity 90    
Minimum Humidity 38    
Precipitation  
Precipitation 0.00 in - 0.43 in (2000)
Month to date precipitation 1.96  
Year to date precipitation 16.50  
Sea Level Pressure  
Sea Level Pressure 29.86 in    
Wind  
Wind Speed 7 mph (North)    
Max Wind Speed 13 mph    
Max Gust Speed 18 mph    
Visibility 10 miles    
Events      
T = Trace of Precipitation, MM = Missing Value Source: NWS Daily Summary

Daily Weather History Graph

Daily Weather History Graph

Search for Another Location

Airport:

Trip Planner

Search our weather history database for the weather conditions in past years. The results will help you decide how hot, cold, wet, or windy it might be!

Date:

Astronomy

Sep. 10, 2013 Rise Set
Actual Time 6:44 AM PDT 7:31 PM PDT
Civil Twilight 6:13 AM PDT 8:01 PM PDT
Nautical Twilight 5:37 AM PDT 8:37 PM PDT
Astronomical Twilight 5:00 AM PDT 9:14 PM PDT
Moon 12:34 PM PDT (9/10) 10:20 PM PDT (9/10)
Length of Visible Light 13h 47m
Length of Day
12h 47m
Waxing Crescent, 29% of the Moon is Illuminated
Sep 10
Waxing Crescent
Sep 12
First Quarter
Sep 19
Full
Sep 26
Last Quarter
Oct 4
New

Hourly Weather History & Observations

Time (PDT) Temp. Heat Index Dew Point Humidity Pressure Visibility Wind Dir Wind Speed Gust Speed Precip Events Conditions
12:53 AM 68.0 °F - 60.1 °F 76% 29.92 in 10.0 mi NNW 9.2 mph - N/A   Clear
1:53 AM 66.9 °F - 59.0 °F 76% 29.93 in 10.0 mi North 5.8 mph - N/A   Clear
2:53 AM 66.0 °F - 59.0 °F 78% 29.93 in 10.0 mi NNW 11.5 mph - N/A   Clear
3:53 AM 64.9 °F - 57.9 °F 78% 29.92 in 10.0 mi North 11.5 mph - N/A   Clear
4:53 AM 64.9 °F - 57.9 °F 78% 29.91 in 10.0 mi North 8.1 mph - N/A   Clear
5:53 AM 63.0 °F - 57.0 °F 81% 29.91 in 10.0 mi NNW 6.9 mph - N/A   Clear
6:53 AM 63.0 °F - 57.0 °F 81% 29.92 in 10.0 mi North 6.9 mph - N/A   Clear
7:53 AM 64.0 °F - 57.9 °F 80% 29.92 in 10.0 mi NNW 6.9 mph - N/A   Clear
8:53 AM 66.9 °F - 57.9 °F 73% 29.92 in 10.0 mi North 10.4 mph - N/A   Clear
9:53 AM 70.0 °F - 59.0 °F 68% 29.92 in 10.0 mi NNE 9.2 mph - N/A   Clear
10:53 AM 73.0 °F - 60.1 °F 64% 29.90 in 10.0 mi Variable 6.9 mph - N/A   Clear
11:53 AM 78.1 °F - 61.0 °F 56% 29.88 in 10.0 mi NNE 9.2 mph - N/A   Clear
12:53 PM 82.9 °F 83.3 °F 61.0 °F 47% 29.86 in 10.0 mi NNE 6.9 mph - N/A   Clear
1:53 PM 86.0 °F 85.7 °F 60.1 °F 41% 29.84 in 10.0 mi NNE 6.9 mph - N/A   Clear
2:53 PM 88.0 °F 87.1 °F 59.0 °F 37% 29.82 in 10.0 mi NNE 9.2 mph - N/A   Clear
3:53 PM 90.0 °F 89.7 °F 60.1 °F 37% 29.81 in 10.0 mi North 8.1 mph - N/A   Clear
4:53 PM 89.1 °F 89.3 °F 62.1 °F 40% 29.79 in 10.0 mi NNW 10.4 mph - N/A   Clear
5:53 PM 87.1 °F 87.5 °F 62.1 °F 43% 29.79 in 10.0 mi NNW 9.2 mph - N/A   Clear
6:53 PM 82.9 °F 84.0 °F 63.0 °F 51% 29.79 in 10.0 mi NNW 8.1 mph - N/A   Clear
7:53 PM 79.0 °F - 62.1 °F 56% 29.79 in 10.0 mi NNW 6.9 mph - N/A   Clear
8:53 PM 75.0 °F - 62.1 °F 64% 29.81 in 10.0 mi Calm Calm - N/A   Clear
9:53 PM 71.1 °F - 62.1 °F 73% 29.81 in 10.0 mi Calm Calm - N/A   Clear
10:53 PM 68.0 °F - 61.0 °F 78% 29.82 in 10.0 mi Calm Calm - N/A   Clear
11:53 PM 63.0 °F - 59.0 °F 87% 29.82 in 10.0 mi Calm Calm - N/A   Clear